www.pogodaiklimat.ru

Погода и климат >> Архив погоды >> Россия >> Воронежская область >> Лиски


ПОГОДА в Лисках

  • Прогноз погоды в Лисках
  • Монитор погоды в Лисках

АРХИВ ПОГОДЫ в Лисках

Время (UTC), дата Ветер
(напр.,м/с)
 
Видим.   Явления Облачность Т
(С)
Тd
(С)
f
(%)
Тe
(С)
Тes
(С)
Комфортность P
(гПа)
Po
(гПа)
Тmin
(С)
Tmax
(С)
R
(мм)
R24
(мм)
S
(см)
00 18.08 штиль 0 10 км {ливн. осадки} 10/10 600 м
[Cb cap]
+20.2 +16.9 81 +23 +23 комфорт 1007.1 993.8
03 18.08 ЮЗ 1 10 км 9/9 600 м
[Sc]
+17.9 +16.2 90 +19 +19 1009.7 996.2 +17.8
06 18.08 Ю 1 10 км 10/10 600 м
[Sc]
+18.9 +15.9 83 +21 +21 комфорт 1010.4 997.0
09 18.08 ЮЗ 1 20 км 9/9 600 м
[Cb cap]
+21.8 +16.0 70 +26 +27 душно 1011.2 997.9
12 18.08 ЮЗ 2 20 км 8/8 600 м
[Sc]
+25.0 +14.9 53 +28 +29 жарко 1011.6 998.4
15 18.08 штиль 0 20 км 6/3 600 м
[Sc Ci fib]
+24.6 +14.6 54 +27 +28 жарко 1011.7 998.5 +27.1
18 18.08 штиль 0 10 км 3/0
[Ci fib]
+20.1 +16.5 80 +23 +23 комфорт 1012.9 999.6
21 18.08 С 1 10 км ясно +17.9 +15.0 83 +19 +19 1014.2 1000.7
00 19.08 штиль 0 10 км 4/0
[Ci fib]
+16.1 +14.0 87 +16 +16 1015.6 1002.0
03 19.08 С 1 10 км 10/10 600 м
[Cb cap]
+16.5 +13.9 85 +17 +17 1016.5 1003.0 +15.7
06 19.08 С 3 20 км 8/4 600 м
[Sc Ci fib]
+19.6 +14.1 71 +22 +25 комфорт 1017.2 1003.8
09 19.08 С 2 20 км 8/0
[Cc]
+23.5 +14.4 57 +26 +37 жарко 1018.1 1004.7
12 19.08 СВ 2 20 км 8/8 600 м
[Sc]
+24.7 +14.1 52 +27 +29 жарко 1018.1 1004.8
15 19.08 В 1 20 км 4/4 600 м
[Sc]
+24.7 +13.2 49 +27 +27 жарко 1018.4 1005.1 +25.6
18 19.08 штиль 0 10 км ясно +20.1 +15.9 77 +22 +22 комфорт 1019.6 1006.1
21 19.08 СВ 1 10 км ясно +16.5 +14.4 87 +17 +17 1020.1 1006.4
00 20.08 С 1 10 км ясно +15.0 +13.4 90 +15 +15 1020.6 1006.9
03 20.08 СВ 1 10 км ясно +14.5 +13.1 91 +15 +15 1021.4 1007.7 +13.7
06 20.08 СВ 2 20 км ясно +22.6 +15.6 65 +27 +33 душно 1021.9 1008.5
09 20.08 С 3 20 км 3/3 600 м
[Cu hum]
+27.7 +13.8 42 +30 +37 жарко 1021.4 1008.2
12 20.08 С 3 20 км ясно +28.8 +12.0 35 +30 +37 жарко 1020.6 1007.5
15 20.08 СВ 3 20 км ясно +26.8 +10.0 35 +27 +28 жарко 1020.8 1007.6 +29.0
18 20.08 С 1 10 км ясно +20.2 +13.4 65 +23 +23 комфорт 1022.2 1008.6
21 20.08 С 1 10 км ясно +17.4 +12.8 74 +18 +18 1022.9 1009.2
00 21.08 СВ 1 10 км ясно +13.9 +11.7 87 +14 +14 1023.0 1009.2
03 21.08 С 1 10 км ясно +13.8 +11.9 88 +14 +14 1023.7 1009.8 +12.6
06 21.08 СВ 3 10 км ясно +23.0 +13.4 55 +26 +32 жарко 1023.4 1010.0
09 21.08 В 2 20 км ясно +27.8 +13.5 41 +30 +43 жарко 1022.5 1009.2
12 21.08 СВ 3 20 км ясно +29.4 +11.7 34 +30 +37 жарко 1020.8 1007.6
15 21.08 СВ 3 20 км ясно +28.2 +11.1 35 +29 +30 жарко 1020.1 1006.9 +30.0
18 21.08 СВ 2 10 км ясно +22.8 +12.7 53 +26 +26 жарко 1020.8 1007.4
21 21.08 штиль 0 10 км ясно +19.1 +13.9 72 +20 +20 1020.7 1007.1
00 22.08 СВ 1 10 км ясно +15.9 +13.0 83 +17 +17 1020.7 1007.0
03 22.08 СВ 2 10 км ясно +15.3 +13.0 86 +15 +15 1020.8 1007.1 +15.0
06 22.08 ЮВ 1 20 км ясно +25.3 +13.8 49 +28 +35 жарко 1020.4 1007.1
09 22.08 СВ 2 20 км ясно +29.8 +12.1 34 +31 +43 жарко 1019.6 1006.5
12 22.08 С 1 20 км 3/3 600 м
[Cu hum]
+30.8 +11.2 30 +31 +38 жарко 1018.8 1005.8
15 22.08 СВ 1 20 км 4/3 600 м
[Sc Ci fib]
+29.3 +10.3 31 +29 +30 жарко 1018.6 1005.5 +31.4
18 22.08 С 1 10 км ясно +22.5 +14.6 61 +26 +26 жарко 1019.8 1006.4
21 22.08 штиль 0 10 км ясно +19.0 +14.7 76 +20 +20 1020.2 1006.6
00 23.08 штиль 0 10 км ясно +17.4 +14.3 82 +17 +17 1020.7 1007.0
03 23.08 С 2 10 км 6/6 600 м
[Sc]
+18.5 +15.3 82 +20 +20 1021.6 1008.0 +17.2
06 23.08 СВ 3 20 км 6/4 600 м
[Sc Ci fib]
+23.1 +17.7 72 +29 +31 очень
душно
1022.5 1009.1
09 23.08 СВ 4 20 км 8/0
[Ci fib]
+27.8 +15.4 47 +31 +38 душно 1022.1 1008.9
12 23.08 С 4 20 км 9/4 600 м
[Sc Ci fib]
+28.5 +14.9 44 +31 +34 душно 1021.5 1008.4
15 23.08 СВ 4
{10}
20 км 9/6 600 м
[Sc Ci fib]
+26.9 +13.6 44 +29 +29 жарко 1021.7 1008.5 +29.3
18 23.08 С 2 10 км 6/3 600 м
[Sc Ci fib]
+22.4 +14.8 62 +26 +26 жарко 1023.0 1009.6
21 23.08 С 2 10 км ясно +19.3 +12.8 66 +21 +21 комфорт 1023.1 1009.5
00 24.08 С 2 10 км ясно +16.1 +11.1 72 +16 +16 1023.2 1009.4
03 24.08 С 2 10 км 3/0
[Ci fib]
+15.4 +10.7 74 +15 +15 1023.8 1010.0 +15.2
06 24.08 СВ 2 20 км ясно +21.2 +12.0 56 +23 +29 комфорт 1023.6 1010.1
09 24.08 СВ 3 20 км ясно +26.8 +13.0 42 +28 +39 жарко 1022.2 1009.0
12 24.08 СВ 3 20 км 3/3 600 м
[Cu hum]
+28.8 +12.0 35 +30 +35 жарко 1021.4 1008.3
15 24.08 С 2 20 км ясно +27.6 +11.4 36 +28 +29 жарко 1021.0 1007.8 +29.8
18 24.08 С 1 10 км ясно +22.4 +10.4 47 +24 +24 комфорт 1021.8 1008.3
21 24.08 С 1 10 км ясно +17.6 +9.2 58 +19 +19 1022.1 1008.4

 

Местоположение метеостанции Лиски (Воронежская область, Россия): широта 51.00 долгота 39.50 высота над уровнем моря 115 м.

В архиве по умолчанию представлена погода в Лисках за последнюю неделю. Архивные данные за месяц целиком и за предыдущие месяцы, начиная с января 2011 года, Вы можете получить, выбрав интересующий диапазон дат из раскрывающегося списка и нажав кнопку "Ввод!".


*Определитесь, кто Вы:
робот инопланетянин человек

Внимание! Время в таблицах - всемирное. Для получения местного времени необходимо прибавить поправку, которая равна 3 ч.

Смотрите также архив погоды в соседних городах и на ближайших метеорологических станциях:

Погода в Воронеже (Воронежская область, Россия) (80 км)
Погода в Анне (Воронежская область, Россия) (83 км)
Погода в Каменной Степи (Воронежская область, Россия) (84 км)
Погода в Павловск (Воронежская область, Россия) (93 км)
Погода в Нижнедевицке (Воронежская область, Россия) (99 км)
Погода в Новом Осколе (Белгородская область, Россия) (118 км)
Погода в Старом Осколе (Белгородская область, Россия) (118 км)
Погода в Калаче (Воронежская область, Россия) (127 км)
Погода в Конь-Колодезе (Липецкая область, Россия) (130 км)
Погода в Валуйках (Белгородская область, Россия) (131 км)

Пояснения к столбцам:

Ветер - указаны скорость ветра в м/с - средняя за 10 мин, порывы в срок и между сроками (в фигурных скобках) и направление, откуда дует ветер: С - северный, СВ - северо-восточный, В - восточный, ЮВ - юго-восточный, Ю - южный, ЮЗ - юго-западный, З - западный, СЗ - северо-западный.
Видимость - горизонтальная дальность видимости в метрах или километрах. При видимости от 1 до 10 км при отсутствии осадков обычно наблюдается дымка, при ухудшении видимости до 1 км и менее - туман. В сухую погоду видимость может ухудшаться дымом, пылью или мглою.
Явления - указаны атмосферные явления, наблюдавшиеся в срок или в последний час перед сроком; фигурными скобками обозначены явления, наблюдавшиеся между сроками (за 1-3 часа до срока); квадратными скобками обозначены град или гололедные отложения с указанием их диаметра в мм.
Облачность - указаны через наклонную черту общая и нижняя облачность в баллах и высота нижней границы облаков в метрах; квадратными скобками обозначены формы облаков: Ci - перистые, Cs - перисто-слоистые, Cc - перисто-кучевые, Ac - высококучевые, As - высокослоистые, Sc - слоисто-кучевые, Ns - слоисто-дождевые, Cu - кучевые, Cb - кучево-дождевые. Подробнее классификацию облаков см. в Атласе облаков (PDF).
T - Температура воздуха - температура, измеренная на высоте 2 м над землей.
Td - Температура точки росы - температура, при понижении до которой содержащийся в воздухе водяной пар достигнет насыщения.
f - Относительная влажность воздуха - влажноcть воздуха, измеренная на высоте 2 м над землей.
Te - Эффективная температура - температура, которую ощущает одетый по сезону человек в тени. Характеристика душности погоды. При расчете учитывается влияние влажности воздуха и скорости ветра на теплоощущения человека.
Tes - Эффективная температура на солнце - температура, которую ощущает человек, с поправкой на солнечный нагрев. Характеристика знойности погоды. Зависит от высоты солнца над горизонтом, облачности и скорости ветра. Ночью, в пасмурную погоду, а также при ветре 12 м/с и более поправка равна нулю.
P - Атмосферное давление - приведенное к уровню моря атмосферное давление.
Po - Атмосферное давление - измеренное на уровне метеостанции атмосферное давление.
Tmin - Минимальная температура - минимум температуры воздуха на высоте 2 м над землей.
Tmax - Максимальная температура - максимум температуры воздуха на высоте 2 м над землей.
R - Количество осадков - Количество выпавших осадков за период времени, мм. При наведении курсора мыши на число - период времени, за который выпало указанное количество осадков.
R24 - Количество осадков - Количество выпавших осадков за 24 часа, мм.
S - Снежный покров - Высота снежного покрова, см. При наведении курсора мыши на число - состояние снежного покрова и степень покрытия местности в баллах.